Time,TemperatureF,DewpointF,PressureIn,WindDirection,WindDirectionDegrees,WindSpeedMPH,WindSpeedGustMPH,Humidity,HourlyPrecipIn,Conditions,Clouds,dailyrainin,SoftwareType,DateUTC
2013-02-26 00:11:00,22.0,17.0,-100.00,SW,220,4.0,8.0,82,0.01,,,0.01,,2013-02-26 00:11:00,
2013-02-26 00:21:00,22.0,17.0,-100.00,SW,220,4.0,8.0,82,0.01,,,0.01,,2013-02-26 00:21:00,
2013-02-26 00:32:00,22.0,17.0,-100.00,SW,220,4.0,8.0,82,0.01,,,0.01,,2013-02-26 00:32:00,
2013-02-26 00:41:00,22.0,17.0,-100.00,SW,220,4.0,8.0,82,0.01,,,0.01,,2013-02-26 00:41:00,
2013-02-26 00:51:00,22.0,17.0,-100.00,SW,220,4.0,8.0,82,0.01,,,0.01,,2013-02-26 00:51:00,
2013-02-26 01:11:00,19.0,16.0,-100.00,West,265,6.0,9.0,86,0.01,,,0.02,,2013-02-26 01:11:00,
2013-02-26 01:21:00,19.0,16.0,-100.00,West,265,6.0,9.0,86,0.01,,,0.02,,2013-02-26 01:21:00,
2013-02-26 01:31:00,19.0,16.0,-100.00,West,265,6.0,9.0,86,0.01,,,0.02,,2013-02-26 01:31:00,
2013-02-26 01:41:00,19.0,16.0,-100.00,West,265,6.0,9.0,86,0.01,,,0.02,,2013-02-26 01:41:00,
2013-02-26 01:51:00,19.0,16.0,-100.00,West,265,6.0,9.0,86,0.01,,,0.02,,2013-02-26 01:51:00,
2013-02-26 02:11:00,18.0,15.0,-100.00,West,270,2.0,5.0,88,0.02,,,0.04,,2013-02-26 02:11:00,
2013-02-26 02:21:00,18.0,15.0,-100.00,West,270,2.0,5.0,88,0.02,,,0.04,,2013-02-26 02:21:00,
2013-02-26 02:32:00,18.0,15.0,-100.00,West,270,2.0,5.0,88,0.02,,,0.04,,2013-02-26 02:32:00,
2013-02-26 02:41:00,18.0,15.0,-100.00,West,270,2.0,5.0,88,0.02,,,0.04,,2013-02-26 02:41:00,
2013-02-26 02:51:00,18.0,15.0,-100.00,West,270,2.0,5.0,88,0.02,,,0.04,,2013-02-26 02:51:00,
2013-02-26 03:11:00,17.0,15.0,-100.00,SW,226,2.0,4.0,90,0.02,,,0.06,,2013-02-26 03:11:00,
2013-02-26 03:21:00,17.0,15.0,-100.00,SW,226,2.0,4.0,90,0.02,,,0.06,,2013-02-26 03:21:00,
2013-02-26 03:31:00,17.0,15.0,-100.00,SW,226,2.0,4.0,90,0.02,,,0.06,,2013-02-26 03:31:00,
2013-02-26 03:41:00,17.0,15.0,-100.00,SW,226,2.0,4.0,90,0.02,,,0.06,,2013-02-26 03:41:00,
2013-02-26 03:51:00,17.0,15.0,-100.00,SW,226,2.0,4.0,90,0.02,,,0.06,,2013-02-26 03:51:00,
2013-02-26 04:21:00,16.0,14.0,-100.00,South,183,1.0,1.0,91,0.01,,,0.07,,2013-02-26 04:21:00,
2013-02-26 04:32:00,16.0,14.0,-100.00,South,183,1.0,1.0,91,0.01,,,0.07,,2013-02-26 04:32:00,
2013-02-26 04:42:00,16.0,14.0,-100.00,South,183,1.0,1.0,91,0.01,,,0.07,,2013-02-26 04:42:00,
2013-02-26 04:51:00,16.0,14.0,-100.00,South,183,1.0,1.0,91,0.01,,,0.07,,2013-02-26 04:51:00,
2013-02-26 05:11:00,16.0,14.0,-100.00,West,260,1.0,1.0,92,0.01,,,0.08,,2013-02-26 05:11:00,
2013-02-26 05:21:00,16.0,14.0,-100.00,West,260,1.0,1.0,92,0.01,,,0.08,,2013-02-26 05:21:00,
2013-02-26 05:31:00,16.0,14.0,-100.00,West,260,1.0,1.0,92,0.01,,,0.08,,2013-02-26 05:31:00,
2013-02-26 05:42:00,16.0,14.0,-100.00,West,260,1.0,1.0,92,0.01,,,0.08,,2013-02-26 05:42:00,
2013-02-26 05:52:00,16.0,14.0,-100.00,West,260,1.0,1.0,92,0.01,,,0.08,,2013-02-26 05:52:00,
2013-02-26 06:21:00,16.0,14.0,-100.00,WSW,254,1.0,2.0,91,0.03,,,0.11,,2013-02-26 06:21:00,
2013-02-26 06:31:00,16.0,14.0,-100.00,WSW,254,1.0,2.0,91,0.03,,,0.11,,2013-02-26 06:31:00,
2013-02-26 06:41:00,16.0,14.0,-100.00,WSW,254,1.0,2.0,91,0.03,,,0.11,,2013-02-26 06:41:00,
2013-02-26 06:51:00,16.0,14.0,-100.00,WSW,254,1.0,2.0,91,0.03,,,0.11,,2013-02-26 06:51:00,
2013-02-26 07:22:00,17.0,14.0,-100.00,West,269,2.0,2.0,90,0.04,,,0.15,,2013-02-26 07:22:00,
2013-02-26 07:31:00,17.0,14.0,-100.00,West,269,2.0,2.0,90,0.04,,,0.15,,2013-02-26 07:31:00,
2013-02-26 07:41:00,17.0,14.0,-100.00,West,269,2.0,2.0,90,0.04,,,0.15,,2013-02-26 07:41:00,
2013-02-26 07:51:00,17.0,14.0,-100.00,West,269,2.0,2.0,90,0.04,,,0.15,,2013-02-26 07:51:00,
2013-02-26 08:11:00,16.0,14.0,-100.00,SSW,206,0.0,1.0,91,0.02,,,0.17,,2013-02-26 08:11:00,
2013-02-26 08:21:00,16.0,14.0,-100.00,SSW,206,0.0,1.0,91,0.02,,,0.17,,2013-02-26 08:21:00,
2013-02-26 08:31:00,16.0,14.0,-100.00,SSW,206,0.0,1.0,91,0.02,,,0.17,,2013-02-26 08:31:00,
2013-02-26 08:41:00,16.0,14.0,-100.00,SSW,206,0.0,1.0,91,0.02,,,0.17,,2013-02-26 08:41:00,
2013-02-26 08:51:00,16.0,14.0,-100.00,SSW,206,0.0,1.0,91,0.02,,,0.17,,2013-02-26 08:51:00,
2013-02-26 09:21:00,10.0,8.0,-100.00,NNW,340,1.0,1.0,89,0.01,,,0.18,,2013-02-26 09:21:00,
2013-02-26 09:31:00,10.0,8.0,-100.00,NNW,340,1.0,1.0,89,0.01,,,0.18,,2013-02-26 09:31:00,
2013-02-26 09:43:00,10.0,8.0,-100.00,NNW,340,1.0,1.0,89,0.01,,,0.18,,2013-02-26 09:43:00,
2013-02-26 09:51:00,10.0,8.0,-100.00,NNW,340,1.0,1.0,89,0.01,,,0.18,,2013-02-26 09:51:00,
2013-02-26 10:21:00,7.0,5.0,-100.00,NW,316,2.0,4.0,88,0.00,,,0.18,,2013-02-26 10:21:00,
2013-02-26 10:31:00,7.0,5.0,-100.00,NW,316,2.0,4.0,88,0.00,,,0.18,,2013-02-26 10:31:00,
2013-02-26 10:41:00,7.0,5.0,-100.00,NW,316,2.0,4.0,88,0.00,,,0.18,,2013-02-26 10:41:00,
2013-02-26 10:51:00,7.0,5.0,-100.00,NW,316,2.0,4.0,88,0.00,,,0.18,,2013-02-26 10:51:00,
2013-02-26 11:11:00,5.0,2.0,-100.00,NW,315,4.0,5.0,87,0.00,,,0.18,,2013-02-26 11:11:00,
2013-02-26 11:21:00,5.0,2.0,-100.00,NW,315,4.0,5.0,87,0.00,,,0.18,,2013-02-26 11:21:00,
2013-02-26 11:31:00,5.0,2.0,-100.00,NW,315,4.0,5.0,87,0.00,,,0.18,,2013-02-26 11:31:00,
2013-02-26 11:41:00,5.0,2.0,-100.00,NW,315,4.0,5.0,87,0.00,,,0.18,,2013-02-26 11:41:00,
2013-02-26 11:52:00,5.0,2.0,-100.00,NW,315,4.0,5.0,87,0.00,,,0.18,,2013-02-26 11:52:00,
2013-02-26 12:11:00,6.0,3.0,-100.00,NW,304,4.0,6.0,89,0.00,,,0.18,,2013-02-26 12:11:00,
2013-02-26 12:22:00,6.0,3.0,-100.00,NW,304,4.0,6.0,89,0.00,,,0.18,,2013-02-26 12:22:00,
2013-02-26 12:32:00,6.0,3.0,-100.00,NW,304,4.0,6.0,89,0.00,,,0.18,,2013-02-26 12:32:00,
2013-02-26 12:42:00,6.0,3.0,-100.00,NW,304,4.0,6.0,89,0.00,,,0.18,,2013-02-26 12:42:00,
2013-02-26 12:52:00,6.0,3.0,-100.00,NW,304,4.0,6.0,89,0.00,,,0.18,,2013-02-26 12:52:00,
2013-02-26 13:21:00,4.0,1.0,-100.00,NNW,331,2.0,5.0,87,0.00,,,0.18,,2013-02-26 13:21:00,
2013-02-26 13:31:00,4.0,1.0,-100.00,NNW,331,2.0,5.0,87,0.00,,,0.18,,2013-02-26 13:31:00,
2013-02-26 13:42:00,4.0,1.0,-100.00,NNW,331,2.0,5.0,87,0.00,,,0.18,,2013-02-26 13:42:00,
2013-02-26 13:51:00,4.0,1.0,-100.00,NNW,331,2.0,5.0,87,0.00,,,0.18,,2013-02-26 13:51:00,
2013-02-26 14:11:00,0.0,-3.0,-100.00,NNE,28,4.0,6.0,86,0.00,,,0.18,,2013-02-26 14:11:00,
2013-02-26 14:21:00,0.0,-3.0,-100.00,NNE,28,4.0,6.0,86,0.00,,,0.18,,2013-02-26 14:21:00,
2013-02-26 14:31:00,0.0,-3.0,-100.00,NNE,28,4.0,6.0,86,0.00,,,0.18,,2013-02-26 14:31:00,
2013-02-26 14:42:00,0.0,-99.9,-100.00,NNE,28,4.0,6.0,86,0.00,,,0.18,,2013-02-26 14:42:00,
2013-02-26 14:52:00,0.0,-99.9,-100.00,NNE,28,4.0,6.0,86,0.00,,,0.18,,2013-02-26 14:52:00,
2013-02-26 15:11:00,-4.0,-7.0,-100.00,SSW,206,2.0,4.0,84,0.00,,,-99.99,,2013-02-26 15:11:00,
2013-02-26 15:21:00,-4.0,-7.0,-100.00,SSW,206,2.0,4.0,84,0.00,,,-99.99,,2013-02-26 15:21:00,
2013-02-26 16:22:00,2.0,-1.0,-100.00,NNE,24,1.0,2.0,85,-99.99,,,0.18,,2013-02-26 16:22:00,
2013-02-26 16:31:00,2.0,-1.0,-100.00,NNE,24,1.0,2.0,85,-99.99,,,0.18,,2013-02-26 16:31:00,
2013-02-26 17:11:00,9.0,5.0,-100.00,ENE,66,2.0,4.0,84,-99.99,,,-99.99,,2013-02-26 17:11:00,
2013-02-26 17:21:00,9.0,5.0,-100.00,ENE,66,2.0,4.0,84,-99.99,,,-99.99,,2013-02-26 17:21:00,
2013-02-26 17:32:00,9.0,5.0,-100.00,ENE,66,2.0,4.0,84,-99.99,,,-99.99,,2013-02-26 17:32:00,
2013-02-26 17:41:00,9.0,5.0,-100.00,ENE,66,2.0,4.0,84,-99.99,,,-99.99,,2013-02-26 17:41:00,
2013-02-26 17:52:00,9.0,5.0,-100.00,ENE,66,2.0,4.0,84,-99.99,,,-99.99,,2013-02-26 17:52:00,
2013-02-26 19:11:00,23.0,13.0,-100.00,SW,218,4.0,7.0,65,-99.99,,,0.18,,2013-02-26 19:11:00,
2013-02-26 19:22:00,23.0,13.0,-100.00,SW,218,4.0,7.0,65,-99.99,,,0.18,,2013-02-26 19:22:00,
2013-02-26 19:31:00,23.0,13.0,-100.00,SW,218,4.0,7.0,65,-99.99,,,0.18,,2013-02-26 19:31:00,
2013-02-26 19:41:00,23.0,13.0,-100.00,SW,218,4.0,7.0,65,-99.99,,,0.18,,2013-02-26 19:41:00,
2013-02-26 19:51:00,23.0,13.0,-100.00,SW,218,4.0,7.0,65,-99.99,,,0.18,,2013-02-26 19:51:00,
2013-02-26 20:21:00,31.0,14.0,-100.00,South,178,4.0,6.0,49,0.00,,,0.18,,2013-02-26 20:21:00,
2013-02-26 20:31:00,31.0,14.0,-100.00,South,178,4.0,6.0,49,0.00,,,0.18,,2013-02-26 20:31:00,
2013-02-26 20:41:00,31.0,14.0,-100.00,South,178,4.0,6.0,49,0.00,,,0.18,,2013-02-26 20:41:00,
2013-02-26 20:51:00,31.0,14.0,-100.00,South,178,4.0,6.0,49,0.00,,,0.18,,2013-02-26 20:51:00,
2013-02-26 21:21:00,31.0,14.0,-100.00,West,273,4.0,7.0,48,0.00,,,0.18,,2013-02-26 21:21:00,
2013-02-26 21:31:00,31.0,14.0,-100.00,West,273,4.0,7.0,48,0.00,,,0.18,,2013-02-26 21:31:00,
2013-02-26 22:21:00,30.0,13.0,-100.00,NE,38,5.0,9.0,49,-99.99,,,0.18,,2013-02-26 22:21:00,
2013-02-26 22:31:00,30.0,13.0,-100.00,NE,38,5.0,9.0,49,-99.99,,,0.18,,2013-02-26 22:31:00,
2013-02-26 22:41:00,30.0,13.0,-100.00,NE,38,5.0,9.0,49,-99.99,,,0.18,,2013-02-26 22:41:00,
2013-02-26 22:51:00,30.0,13.0,-100.00,NE,38,5.0,9.0,49,-99.99,,,0.18,,2013-02-26 22:51:00,
2013-02-26 23:21:00,30.0,13.0,-100.00,WSW,253,9.0,14.0,48,0.00,,,0.18,,2013-02-26 23:21:00,
2013-02-26 23:31:00,30.0,13.0,-100.00,WSW,253,9.0,14.0,48,0.00,,,0.18,,2013-02-26 23:31:00,
2013-02-26 23:41:00,30.0,13.0,-100.00,WSW,253,9.0,14.0,48,0.00,,,0.18,,2013-02-26 23:41:00,
2013-02-26 23:51:00,30.0,13.0,-100.00,WSW,253,9.0,14.0,48,0.00,,,0.18,,2013-02-26 23:51:00,